Change the Weather History Date:

Wednesday, January 8, 2014

  Actual Average Record
Temperature  
Mean Temperature -15 °F -  
Max Temperature 1 °F 18 °F 51 °F (2003)
Min Temperature -31 °F 1 °F -31 °F (2014)
Degree Days  
Heating Degree Days 80    
Moisture  
Dew Point -23 °F    
Average Humidity 74    
Maximum Humidity 84    
Minimum Humidity 56    
Precipitation  
Precipitation 0.00 in - - ()
Sea Level Pressure  
Sea Level Pressure 30.34 in    
Wind  
Wind Speed 1 mph (SW)    
Max Wind Speed 7 mph    
Max Gust Speed -    
Visibility 10 miles    
Events      
Averages and records for this station are not official NWS values.
T = Trace of Precipitation, MM = Missing Value Source: NWS Daily Summary

Daily Weather History Graph

Daily Weather History Graph

Search for Another Location

Airport or City:

Trip Planner

Search our weather history database for the weather conditions in past years. The results will help you decide how hot, cold, wet, or windy it might be!

Date:

Astronomy

Jan. 08, 2014 Rise Set
Actual Time 8:01 AM CST 4:47 PM CST
Civil Twilight 7:26 AM CST 5:22 PM CST
Nautical Twilight 6:48 AM CST 6:00 PM CST
Astronomical Twilight 6:11 AM CST 6:36 PM CST
Moon 11:52 AM CST (1/8) 12:54 AM CST (1/8)
Length of Visible Light 9h 55m
Length of Day
8h 46m
First Quarter, 56% of the Moon is Illuminated
Jan 8
First Quarter
Jan 15
Full
Jan 23
Last Quarter
Jan 30
New
Feb 6
First Quarter

Hourly Weather History & Observations

Time (CST) Temp. Windchill Dew Point Humidity Pressure Visibility Wind Dir Wind Speed Gust Speed Precip Events Conditions
12:13 AM -22.0 °F - -27.4 °F 76% 30.22 in 10.0 mi Calm Calm - N/A   Clear
12:33 AM -23.8 °F - -27.4 °F 83% 30.23 in 10.0 mi Calm Calm - N/A   Clear
12:51 AM -23.8 °F - -27.4 °F 83% 30.24 in 10.0 mi Calm Calm - N/A   Clear
1:12 AM -23.8 °F - -27.4 °F 83% 30.24 in 10.0 mi Calm Calm - N/A   Clear
1:33 AM -23.8 °F - -29.2 °F 76% 30.25 in 10.0 mi Calm Calm - N/A   Clear
1:53 AM -23.8 °F - -29.2 °F 76% 30.26 in 10.0 mi Calm Calm - N/A   Clear
2:13 AM -23.8 °F - -29.2 °F 76% 30.27 in 10.0 mi Calm Calm - N/A   Clear
2:33 AM -23.8 °F -35.0 °F -29.2 °F 76% 30.28 in 10.0 mi WNW 3.5 mph - N/A   Clear
2:53 AM -25.6 °F - -31.0 °F 76% 30.28 in 10.0 mi Calm Calm - N/A   Clear
3:12 AM -25.6 °F - -31.0 °F 76% 30.28 in 10.0 mi Calm Calm - N/A   Clear
3:33 AM -25.6 °F - -31.0 °F 76% 30.28 in 10.0 mi Calm Calm - N/A   Clear
3:53 AM -25.6 °F - -31.0 °F 76% 30.29 in 10.0 mi Calm Calm - N/A   Clear
4:12 AM -27.4 °F - -32.8 °F 75% 30.29 in 10.0 mi Calm Calm - N/A   Clear
4:32 AM -27.4 °F - -32.8 °F 75% 30.28 in 10.0 mi Calm Calm - N/A   Clear
4:52 AM -27.4 °F - -32.8 °F 75% 30.29 in 10.0 mi Calm Calm - N/A   Clear
5:13 AM -27.4 °F - -32.8 °F 75% 30.29 in 10.0 mi Calm Calm - N/A   Clear
5:32 AM -27.4 °F - -34.6 °F 69% 30.30 in 10.0 mi Calm Calm - N/A   Clear
5:53 AM -29.2 °F - -34.6 °F 75% 30.30 in 10.0 mi Calm Calm - N/A   Clear
6:12 AM -29.2 °F - -36.4 °F 68% 30.30 in 10.0 mi Calm Calm - N/A   Clear
6:33 AM -29.2 °F - -34.6 °F 75% 30.30 in 10.0 mi Calm Calm - N/A   Clear
6:52 AM -29.2 °F - -34.6 °F 75% 30.31 in 10.0 mi Calm Calm - N/A   Clear
7:13 AM -31.0 °F - -36.4 °F 75% 30.32 in 10.0 mi Calm Calm - N/A   Clear
7:32 AM -29.2 °F - -36.4 °F 68% 30.33 in 10.0 mi Calm Calm - N/A   Clear
7:52 AM -31.0 °F - -36.4 °F 75% 30.34 in 10.0 mi Calm Calm - N/A   Clear
8:12 AM -31.0 °F - -36.4 °F 75% 30.34 in 10.0 mi Calm Calm - N/A   Clear
8:32 AM -29.2 °F - -36.4 °F 68% 30.35 in 7.0 mi Calm Calm - N/A   Clear
8:52 AM -29.2 °F - -36.4 °F 68% 30.37 in 7.0 mi Calm Calm - N/A   Clear
9:13 AM -29.2 °F - -34.6 °F 75% 30.38 in 7.0 mi Calm Calm - N/A   Clear
9:33 AM -27.4 °F - -32.8 °F 75% 30.39 in 7.0 mi Calm Calm - N/A   Clear
9:52 AM -20.2 °F - -25.6 °F 76% 30.39 in 10.0 mi Calm Calm - N/A   Clear
10:13 AM -14.8 °F - -18.4 °F 84% 30.39 in 10.0 mi Calm Calm - N/A   Clear
10:33 AM -14.8 °F - -20.2 °F 77% 30.39 in 10.0 mi Calm Calm - N/A   Clear
10:53 AM -11.2 °F - -16.6 °F 77% 30.39 in 10.0 mi Calm Calm - N/A   Clear
11:13 AM -9.4 °F -22.7 °F -14.8 °F 77% 30.39 in 10.0 mi NW 5.8 mph - N/A   Clear
11:32 AM -7.6 °F -22.1 °F -13.0 °F 77% 30.39 in 10.0 mi NW 6.9 mph - N/A   Clear
11:53 AM -5.8 °F -16.7 °F -11.2 °F 77% 30.39 in 10.0 mi WNW 4.6 mph - N/A   Clear
12:12 PM -5.8 °F -16.7 °F -11.2 °F 77% 30.38 in 10.0 mi WNW 4.6 mph - N/A   Clear
12:33 PM -4.0 °F -12.4 °F -11.2 °F 71% 30.38 in 10.0 mi NW 3.5 mph - N/A   Clear
12:53 PM -4.0 °F -12.4 °F -11.2 °F 71% 30.37 in 10.0 mi NW 3.5 mph - N/A   Clear
1:13 PM -2.2 °F - -11.2 °F 66% 30.37 in 10.0 mi Calm Calm - N/A   Clear
1:33 PM -2.2 °F - -11.2 °F 66% 30.37 in 10.0 mi Calm Calm - N/A   Clear
1:53 PM -2.2 °F - -11.2 °F 66% 30.37 in 10.0 mi Calm Calm - N/A   Clear
2:13 PM 1.4 °F - -11.2 °F 56% 30.37 in 10.0 mi Calm Calm - N/A   Clear
2:33 PM -0.4 °F -8.3 °F -11.2 °F 60% 30.37 in 10.0 mi SSW 3.5 mph - N/A   Clear
2:53 PM -0.4 °F - -11.2 °F 60% 30.38 in 10.0 mi Calm Calm - N/A   Clear
3:13 PM -0.4 °F - -11.2 °F 60% 30.38 in 10.0 mi Calm Calm - N/A   Clear
3:33 PM -0.4 °F - -11.2 °F 60% 30.37 in 10.0 mi Calm Calm - N/A   Clear
3:53 PM -0.4 °F - -9.4 °F 66% 30.38 in 10.0 mi Calm Calm - N/A   Clear
4:13 PM -0.4 °F -10.4 °F -11.2 °F 60% 30.38 in 10.0 mi South 4.6 mph - N/A   Clear
4:33 PM -2.2 °F - -11.2 °F 66% 30.38 in 10.0 mi Calm Calm - N/A   Clear
4:53 PM -5.8 °F - -14.8 °F 65% 30.38 in 10.0 mi Calm Calm - N/A   Clear
5:12 PM -7.6 °F - -14.8 °F 71% 30.39 in 10.0 mi Calm Calm - N/A   Clear
5:33 PM -9.4 °F - -14.8 °F 77% 30.39 in 10.0 mi Calm Calm - N/A   Clear
5:52 PM -11.2 °F - -18.4 °F 70% 30.38 in 10.0 mi Calm Calm - N/A   Clear
6:13 PM -11.2 °F - -18.4 °F 70% 30.38 in 10.0 mi Calm Calm - N/A   Clear
6:32 PM -13.0 °F - -18.4 °F 77% 30.37 in 10.0 mi Calm Calm - N/A   Clear
6:53 PM -14.8 °F - -18.4 °F 84% 30.38 in 10.0 mi Calm Calm - N/A   Clear
7:13 PM -16.6 °F - -22.0 °F 76% 30.37 in 10.0 mi Calm Calm - N/A   Clear
7:33 PM -20.2 °F - -23.8 °F 83% 30.36 in 10.0 mi Calm Calm - N/A   Clear
7:53 PM -20.2 °F - -25.6 °F 76% 30.36 in 10.0 mi Calm Calm - N/A   Clear
8:13 PM -20.2 °F - -23.8 °F 83% 30.36 in 10.0 mi Calm Calm - N/A   Clear
8:33 PM -20.2 °F - -25.6 °F 76% 30.36 in 10.0 mi Calm Calm - N/A   Clear
8:53 PM -18.4 °F - -23.8 °F 76% 30.36 in 10.0 mi Calm Calm - N/A   Clear
9:13 PM -22.0 °F - -25.6 °F 83% 30.34 in 10.0 mi Calm Calm - N/A   Clear
9:33 PM -16.6 °F -26.8 °F -20.2 °F 84% 30.35 in 10.0 mi SSE 3.5 mph - N/A   Clear
9:53 PM -18.4 °F -28.9 °F -22.0 °F 84% 30.35 in 10.0 mi SSE 3.5 mph - N/A   Clear
10:12 PM -16.6 °F -29.3 °F -20.2 °F 84% 30.33 in 10.0 mi SSE 4.6 mph - N/A   Clear
10:33 PM -14.8 °F -29.1 °F -18.4 °F 84% 30.32 in 10.0 mi SSE 5.8 mph - N/A   Clear
10:53 PM -14.8 °F -27.2 °F -18.4 °F 84% 30.33 in 10.0 mi SSE 4.6 mph - N/A   Clear
11:11 PM -16.6 °F - -20.2 °F 84% 30.33 in 1.8 mi Calm Calm - N/A   Mist
11:33 PM -14.8 °F -29.1 °F -18.4 °F 84% 30.31 in 10.0 mi SSE 5.8 mph - N/A   Clear
11:53 PM -14.8 °F - -18.4 °F 84% 30.31 in 7.0 mi Calm Calm - N/A   Mostly Cloudy